Fort Eustis, VA

7:31 PM EST on November 18, 2019 (GMT -0500)
Felker Army Air Field

Weather History for KFAF - September, 2019

Change the Weather History Date:

Thursday, September 19, 2019

  Actual Average Record
Temperature  
Mean Temperature 64 °F -  
Max Temperature 72 °F 77 °F 89 °F (2016)
Min Temperature 57 °F 62 °F 54 °F (2013)
Growing Degree Days 14 (Base 50)    
Moisture  
Dew Point 48 °F    
Average Humidity 56    
Maximum Humidity 81    
Minimum Humidity 40    
Precipitation  
Precipitation 0.00 in - - ()
Sea Level Pressure  
Sea Level Pressure 30.27 in    
Wind  
Wind Speed 4 mph ()    
Max Wind Speed 13 mph    
Max Gust Speed -    
Visibility 10.0 miles    
Events      
Averages and records for this station are not official NWS values.
T = Trace of Precipitation, MM = Missing Value Source: Averaged Metar Reports

Daily Weather History Graph

Daily Weather History Graph

Search for Another Location

Airport or City:

Astronomy

Sep. 19, 2019 Rise Set
Actual Time 6:51 AM EDT 7:08 PM EDT
Civil Twilight 6:25 AM EDT 7:34 PM EDT
Nautical Twilight 5:55 AM EDT 8:04 PM EDT
Astronomical Twilight 5:24 AM EDT 8:35 PM EDT
Moon 10:23 PM EDT 11:46 AM EDT
Length of Visible Light 13h 08m
Length of Day
12h 16m
Waning Gibbous, 74% of the Moon is Illuminated
Sep 19
Waning Gibbous
Sep 21
Last Quarter
Sep 28
New
Oct 5
First Quarter
Oct 13
Full

Hourly Weather History & Observations

Time (EDT) Temp. Dew Point Humidity Pressure Visibility Wind Dir Wind Speed Gust Speed Precip Events Conditions
12:56 AM 64.2 °F 50.0 °F 60% 30.22 in 10.0 mi NE 3.5 mph - N/A   Clear
1:56 AM 63.0 °F 49.6 °F 62% 30.22 in 10.0 mi NNE 3.5 mph - N/A   Clear
2:56 AM 62.6 °F 48.9 °F 61% 30.22 in 10.0 mi NE 4.6 mph - N/A   Clear
3:56 AM 62.2 °F 47.7 °F 59% 30.22 in 10.0 mi NNE 3.5 mph - N/A   Clear
4:56 AM 62.4 °F 48.4 °F 60% 30.23 in 10.0 mi NE 4.6 mph - N/A   Partly Cloudy
5:56 AM 61.7 °F 45.9 °F 56% 30.24 in 10.0 mi NNE 3.5 mph - N/A   Clear
6:56 AM 60.6 °F 47.5 °F 62% 30.26 in 10.0 mi NNE 3.5 mph - N/A   Partly Cloudy
7:56 AM 61.9 °F 48.7 °F 62% 30.27 in 10.0 mi North 3.5 mph - N/A   Partly Cloudy
8:56 AM 64.8 °F 48.2 °F 55% 30.28 in 10.0 mi NNE 5.8 mph - N/A   Scattered Clouds
9:56 AM 67.1 °F 46.2 °F 47% 30.28 in 10.0 mi ENE 12.7 mph - N/A   Scattered Clouds
10:56 AM 67.8 °F 45.1 °F 44% 30.31 in 10.0 mi NE 9.2 mph - N/A   Mostly Cloudy
11:56 AM 68.7 °F 46.6 °F 45% 30.31 in 10.0 mi NE 8.1 mph - N/A   Scattered Clouds
12:56 PM 69.8 °F 45.7 °F 42% 30.30 in 10.0 mi NE 9.2 mph - N/A   Mostly Cloudy
1:56 PM 70.9 °F 45.3 °F 40% 30.30 in 10.0 mi ENE 9.2 mph - N/A   Mostly Cloudy
2:56 PM 71.4 °F 45.9 °F 40% 30.28 in 10.0 mi NE 6.9 mph - N/A   Mostly Cloudy
3:56 PM 71.8 °F 47.5 °F 42% 30.28 in 10.0 mi NE 8.1 mph - N/A   Mostly Cloudy
4:56 PM 69.6 °F 46.0 °F 43% 30.27 in 10.0 mi ENE 4.6 mph - N/A   Mostly Cloudy
5:56 PM 69.3 °F 48.7 °F 48% 30.28 in 10.0 mi ENE 4.6 mph - N/A   Scattered Clouds
6:56 PM 67.3 °F 48.6 °F 51% 30.27 in 10.0 mi East 4.6 mph - N/A   Partly Cloudy
7:56 PM 63.5 °F 49.8 °F 61% 30.28 in 10.0 mi Calm Calm - N/A   Partly Cloudy
8:56 PM 63.0 °F 48.9 °F 60% 30.30 in 10.0 mi Calm Calm - N/A   Clear
9:56 PM 58.6 °F 51.8 °F 78% 30.29 in 10.0 mi ESE 3.5 mph - N/A   Scattered Clouds
10:56 PM 59.4 °F 52.2 °F 77% 30.29 in 10.0 mi Calm Calm - N/A   Clear
11:56 PM 57.6 °F 51.8 °F 81% 30.28 in 10.0 mi Calm Calm - N/A   Clear